Regional Weather Roundup
Issued by NWS Kansas City/Pleasant Hill, MO

Home | Current Version | Previous Version | Graphics & Text | Print | Product List | Glossary Off
Versions: 1 2 3 4 5 6 7 8 9 10 11 12 13 14 15 16 17 18 19 20 21 22 23 24 25 26 27 28 29 30 31 32 33 34 35 36 37 38 39 40 41 42 43 44 45 46 47 48 49 50

000
ASUS43 KEAX 031210
RWREAX

WEATHER ROUNDUP FOR EASTERN KANSAS AND NORTHWEST MISSOURI
NATIONAL WEATHER SERVICE KANSAS CITY/PLEASANT HILL MO
600 AM CST SAT DEC 03 2016

KSZ040-057-103>105-MOZ028-029-037-043-031300-
...KANSAS CITY METROPOLITAN AREA...

CITY           SKY/WX    TMP DP  RH WIND       PRES   REMARKS
K.C. INTL      PTCLDY    30  25  81 NE8       30.29F WCI  22
6HR MIN TEMP:  28; 6HR MAX TEMP:  32;

K.C. DOWNTOWN  CLOUDY    32  28  85 NE5       30.30F WCI  27
6HR MIN TEMP:  31; 6HR MAX TEMP:  34;

LEES SUMMIT    CLOUDY    34  29  82 E6        30.30S WCI  29
6HR MIN TEMP:  31; 6HR MAX TEMP:  35;

OLATHE - IXD   CLOUDY    36  29  75 NE6       30.28F WCI  31
6HR MIN TEMP:  31; 6HR MAX TEMP:  36;

OLATHE - OJC   CLOUDY    34  28  79 NE7       30.28F WCI  28
6HR MIN TEMP:  33; 6HR MAX TEMP:  35;

LAWRENCE       CLOUDY    32  29  88 E6        30.30F WCI  26

$$

MOZ001>008-011>017-020>025-030>033-038>040-044>046-053-054-031300-
...NORTHERN AND CENTRAL MISSOURI...

CITY           SKY/WX    TMP DP  RH WIND       PRES   REMARKS
ST. JOSEPH     PTCLDY    23  20  88 N3        30.31F
6HR MIN TEMP:  21; 6HR MAX TEMP:  29;

MOSBY          CLOUDY    27  27 100 CALM      30.31F
WARRENSBURG    MOCLDY    32  28  86 NE3       30.31S
WHITEMAN AFB   CLOUDY    31  30  99 CALM      30.30S
6HR MIN TEMP:  28; 6HR MAX TEMP:  33;

CLINTON        CLOUDY    32  28  86 CALM      30.30F
SEDALIA        MOCLDY    32  26  78 E3        30.32S
6HR MIN TEMP:  30; 6HR MAX TEMP:  36;

WARSAW         NOT AVBL
CHILLICOTHE      N/A     26  24  92 CALM      30.34S
6HR MIN TEMP:  26; 6HR MAX TEMP:  29;

KIRKSVILLE     PTCLDY    27  25  92 NE6       30.34F WCI  20
6HR MIN TEMP:  23; 6HR MAX TEMP:  28;


$$

MOZ041-047>049-056>058-063>065-088>090-097-031300-
...EASTERN AND SOUTHERN MISSOURI...

CITY           SKY/WX    TMP DP  RH WIND       PRES   REMARKS
ST. LOUIS INTL CLOUDY    33  27  78 CALM      30.36S
6HR MIN TEMP:  31; 6HR MAX TEMP:  36;

SPIRIT OF STL  PTCLDY    28  27  96 CALM      30.36S
COLUMBIA       CLOUDY    32  27  81 E6        30.32F WCI  26
JEFFERSON CITY CLOUDY    28  25  88 CALM      30.34F
ROLLA          CLOUDY    32  27  81 SE6       30.30R WCI  26
OSAGE BEACH    CLOUDY    32  27  81 NE5       30.32F WCI  27
SPRINGFIELD    MOCLDY    43  27  53 SE8       30.24F
BRANSON        CLOUDY    41  32  70 E6        30.27S
JOPLIN         CLOUDY    45  29  53 E8        30.22F
WEST PLAINS    CLOUDY    40  31  70 E6        30.31F

$$

IAZ060-094-KSZ022-034>040-054-083-096-NEZ052-066-093-031300-
...KANSAS...SOUTHEAST NEBRASKA AND IOWA...

CITY           SKY/WX    TMP DP  RH WIND       PRES   REMARKS
TOPEKA         CLOUDY    30  26  85 CALM      30.28F
6HR MIN TEMP:  27; 6HR MAX TEMP:  31;

MANHATTAN      CLOUDY    31  27  85 N6        30.28S WCI  25
EMPORIA        CLOUDY    36  29  75 E7        30.24F WCI  30
CHANUTE        CLOUDY    42  27  55 E7        30.23F
WICHITA        LGT RAIN  42  28  57 E7        30.20F
OMAHA          FOG       23  19  85 CALM      30.31F VSB 1/4
LINCOLN        CLEAR     24  21  88 CALM      30.29F
FALLS CITY       N/A    N/A N/A N/A MISG      30.30F
LAMONI         CLEAR     24  23  96 N6        30.30F WCI  17
DES MOINES     CLOUDY    36  28  73 W3        30.34F

$$




USA.gov is the U.S. government's official web portal to all federal, state and local government web resources and services.